Flint, MI

3:39 AM EST on February 08, 2016 (GMT -0500)
Bishop International

Weather History for KFNT - January, 2014

Change the Weather History Date:

Monday, January 6, 2014

  Actual Average Record
Temperature  
Mean Temperature 3 °F 23 °F  
Max Temperature 19 °F 30 °F 57 °F (1946)
Min Temperature -14 °F 16 °F -14 °F (2014)
Degree Days  
Heating Degree Days 62 42  
Month to date heating degree days 314 251  
Since 1 July heating degree days 2944 2896  
Cooling Degree Days 0 0  
Month to date cooling degree days 0 0  
Year to date cooling degree days 0 0  
Moisture  
Dew Point -2 °F    
Average Humidity 71    
Maximum Humidity 84    
Minimum Humidity 57    
Precipitation  
Precipitation 0.13 in 0.06 in 0.37 in (2005)
Month to date precipitation 1.40 0.35  
Year to date precipitation 1.40 0.35  
Snow  
Snow 1.60 in 0.40 in 4.80 in ()
Month to date snowfall 20.0 2.5  
Since 1 July snowfall 38.5 17.2  
Snow Depth 15.00 in    
Sea Level Pressure  
Sea Level Pressure 29.84 in    
Wind  
Wind Speed 18 mph (West)    
Max Wind Speed 30 mph    
Max Gust Speed 41 mph    
Visibility 3 miles    
Events Snow    
T = Trace of Precipitation, MM = Missing Value Source: NWS Daily Summary

Daily Weather History Graph

Daily Weather History Graph

Search for Another Location

Airport or City:

Trip Planner

Search our weather history database for the weather conditions in past years. The results will help you decide how hot, cold, wet, or windy it might be!

Date:

Astronomy

Jan. 06, 2014 Rise Set
Actual Time 8:06 AM EST 5:15 PM EST
Civil Twilight 7:34 AM EST 5:47 PM EST
Nautical Twilight 6:58 AM EST 6:23 PM EST
Astronomical Twilight 6:24 AM EST 6:57 PM EST
Moon 11:11 AM EST (1/6) 11:58 PM EST (1/6)
Length of Visible Light 10h 13m
Length of Day
9h 09m
Waxing Crescent, 34% of the Moon is Illuminated
Jan 6
Waxing Crescent
Jan 7
First Quarter
Jan 15
Full
Jan 24
Last Quarter
Jan 30
New

Hourly Weather History & Observations

Time (EST) Temp. Windchill Dew Point Humidity Pressure Visibility Wind Dir Wind Speed Gust Speed Precip Events Conditions
12:00 AM 19.4 °F 4.5 °F 14.0 °F 80% 29.61 in 2.0 mi NW 17.3 mph 27.6 mph N/A   Haze
12:15 AM 17.6 °F 1.3 °F 12.2 °F 79% 29.60 in 1.8 mi NNW 19.6 mph 29.9 mph N/A   Haze
12:24 AM 17.6 °F 3.7 °F 12.2 °F 79% 29.61 in 2.0 mi NW 13.8 mph 29.9 mph N/A   Haze
12:39 AM 17.6 °F 1.7 °F 12.2 °F 79% 29.62 in 3.0 mi NW 18.4 mph 27.6 mph N/A   Haze
12:53 AM 17.1 °F 1.5 °F 12.0 °F 81% 29.65 in 1.8 mi NW 17.3 mph 27.6 mph N/A   Haze
1:00 AM 17.6 °F 1.7 °F 12.2 °F 79% 29.62 in 1.2 mi NW 18.4 mph 25.3 mph N/A   Haze
1:22 AM 15.8 °F -0.2 °F 12.2 °F 86% 29.63 in 1.0 mi NW 17.3 mph 28.8 mph N/A   Mist
1:53 AM 16.0 °F -1.3 °F 10.9 °F 81% 29.68 in 1.2 mi WNW 20.7 mph 26.5 mph N/A   Haze
2:11 AM 15.8 °F 1.4 °F 10.4 °F 79% 29.65 in 1.8 mi NW 13.8 mph 24.2 mph N/A   Haze
2:34 AM 15.8 °F 0.3 °F 10.4 °F 79% 29.66 in 2.5 mi WNW 16.1 mph - N/A   Haze
2:53 AM 14.0 °F -1.4 °F 8.1 °F 77% 29.72 in 4.0 mi NW 15.0 mph 26.5 mph N/A   Haze
3:25 AM 14.0 °F -0.8 °F 8.6 °F 79% 29.69 in 6.0 mi WNW 13.8 mph 24.2 mph N/A   Haze
3:53 AM 12.9 °F -3.4 °F 8.1 °F 81% 29.74 in 5.0 mi WNW 16.1 mph - N/A   Haze
4:53 AM 12.9 °F -3.4 °F 6.1 °F 74% 29.75 in 8.0 mi WNW 16.1 mph - N/A   Overcast
5:53 AM 12.9 °F -2.2 °F 6.1 °F 74% 29.77 in 9.0 mi West 13.8 mph - 0.00 in   Overcast
6:53 AM 12.9 °F -2.8 °F 6.1 °F 74% 29.78 in 10.0 mi West 15.0 mph - N/A   Overcast
7:53 AM 12.9 °F -1.6 °F 5.0 °F 71% 29.80 in 10.0 mi West 12.7 mph - N/A   Overcast
8:53 AM 12.9 °F -0.9 °F 6.1 °F 74% 29.81 in 4.0 mi WSW 11.5 mph - 0.00 in Snow Light Snow
8:57 AM 12.2 °F -5.3 °F 6.8 °F 79% 29.77 in 1.5 mi SW 18.4 mph 24.2 mph N/A Snow Light Snow
9:05 AM 10.4 °F -8.2 °F 5.0 °F 79% 29.78 in 0.5 mi West 19.6 mph 28.8 mph 0.00 in Snow Snow
9:53 AM 9.0 °F -10.0 °F 3.0 °F 77% 29.84 in 0.5 mi WSW 19.6 mph 27.6 mph 0.00 in Snow Snow
10:19 AM 8.6 °F -11.9 °F 1.4 °F 73% 29.80 in 0.5 mi West 23.0 mph 31.1 mph 0.00 in Snow Snow
10:31 AM 8.6 °F -11.4 °F 1.4 °F 73% 29.80 in 0.5 mi West 21.9 mph 33.4 mph 0.00 in Snow Snow
10:46 AM 8.6 °F -11.0 °F -0.4 °F 67% 29.80 in 1.0 mi West 20.7 mph 32.2 mph 0.00 in Snow Light Snow
10:53 AM 8.1 °F -11.2 °F -0.0 °F 70% 29.85 in 1.2 mi West 19.6 mph 32.2 mph 0.00 in   Overcast
11:04 AM 8.6 °F -12.3 °F -0.4 °F 67% 29.80 in 1.5 mi West 24.2 mph 31.1 mph 0.00 in   Haze
11:16 AM 8.6 °F -11.9 °F -0.4 °F 67% 29.80 in 2.0 mi West 23.0 mph 27.6 mph 0.00 in   Overcast
11:23 AM 8.6 °F -13.1 °F -0.4 °F 67% 29.80 in 1.2 mi WSW 26.5 mph 36.8 mph 0.00 in   Overcast
11:27 AM 6.8 °F -15.5 °F -2.2 °F 67% 29.80 in 0.8 mi WSW 26.5 mph 36.8 mph 0.00 in Snow Light Snow
11:42 AM 6.8 °F -14.7 °F -2.2 °F 67% 29.79 in 1.0 mi West 24.2 mph 35.7 mph 0.00 in Snow Light Snow
11:53 AM 6.1 °F -15.2 °F -2.0 °F 69% 29.84 in 1.0 mi West 23.0 mph 32.2 mph 0.00 in Snow Light Snow
12:19 PM 6.8 °F -12.9 °F -2.2 °F 67% 29.78 in 2.0 mi WSW 19.6 mph 29.9 mph 0.00 in   Overcast
12:27 PM 6.8 °F -14.7 °F -2.2 °F 67% 29.78 in 1.0 mi WSW 24.2 mph 31.1 mph 0.00 in Snow Light Snow
12:34 PM 6.8 °F -13.8 °F -2.2 °F 67% 29.78 in 0.8 mi West 21.9 mph 35.7 mph 0.00 in Snow Light Snow
12:53 PM 5.0 °F -17.1 °F -2.9 °F 70% 29.83 in 0.8 mi West 24.2 mph 31.1 mph 0.00 in Snow Light Snow
1:53 PM 5.0 °F -16.2 °F -2.9 °F 70% 29.84 in 0.8 mi West 21.9 mph 35.7 mph 0.00 in Snow Light Snow
2:53 PM 3.9 °F -17.6 °F -2.9 °F 73% 29.87 in 0.8 mi West 21.9 mph 33.4 mph 0.00 in Snow Light Snow
3:07 PM 3.2 °F -18.6 °F -2.2 °F 78% 29.82 in 1.0 mi West 21.9 mph 34.5 mph 0.00 in   Overcast
3:24 PM 3.2 °F -20.7 °F -4.0 °F 72% 29.84 in 0.5 mi West 27.6 mph 39.1 mph 0.00 in Snow Snow
3:53 PM 3.0 °F -18.3 °F -2.9 °F 76% 29.92 in 0.5 mi West 20.7 mph 31.1 mph 0.00 in Snow Snow
4:03 PM 3.2 °F -20.3 °F -5.8 °F 66% 29.87 in 1.0 mi West 26.5 mph 32.2 mph 0.00 in Snow Light Snow
4:13 PM 3.2 °F -19.9 °F -5.8 °F 66% 29.88 in 0.8 mi West 25.3 mph 35.7 mph 0.00 in Snow Light Snow
4:27 PM 3.2 °F -19.9 °F -5.8 °F 66% 29.88 in 1.2 mi West 25.3 mph 36.8 mph 0.00 in   Overcast
4:43 PM 1.4 °F -23.5 °F -7.6 °F 66% 29.90 in 1.2 mi West 28.8 mph 36.8 mph 0.00 in   Overcast
4:53 PM 1.9 °F -19.2 °F -9.0 °F 60% 29.96 in 2.0 mi West 19.6 mph 33.4 mph 0.00 in   Haze
5:06 PM 1.4 °F -21.9 °F -9.4 °F 61% 29.91 in 1.0 mi West 24.2 mph 41.4 mph 0.00 in   Overcast
5:24 PM 1.4 °F -21.4 °F -9.4 °F 61% 29.92 in 3.0 mi West 23.0 mph 29.9 mph 0.00 in   Haze
5:53 PM 1.0 °F -21.4 °F -11.0 °F 57% 29.99 in 7.0 mi West 21.9 mph 28.8 mph 0.00 in   Overcast
6:38 PM -0.4 °F -23.8 °F -9.4 °F 66% 29.96 in 2.5 mi West 23.0 mph 32.2 mph N/A Snow Light Snow
6:53 PM -0.9 °F -23.5 °F -9.9 °F 66% 30.03 in 3.0 mi West 20.7 mph 28.8 mph 0.00 in   Haze
7:35 PM -2.2 °F -23.5 °F -11.2 °F 66% 29.99 in 8.0 mi West 17.3 mph 28.8 mph N/A   Mostly Cloudy
7:53 PM -2.0 °F -21.9 °F -11.9 °F 63% 30.06 in 10.0 mi West 15.0 mph 21.9 mph N/A   Mostly Cloudy
8:14 PM -5.8 °F -25.2 °F -13.0 °F 71% 30.00 in 6.0 mi SW 12.7 mph 21.9 mph N/A   Haze
8:45 PM -7.6 °F -29.1 °F -14.8 °F 71% 30.01 in 1.8 mi WSW 15.0 mph 23.0 mph 0.00 in Snow Light Snow
8:53 PM -7.1 °F -31.0 °F -15.0 °F 68% 30.07 in 1.2 mi WSW 19.6 mph 24.2 mph 0.00 in Snow Light Snow
9:12 PM -7.6 °F -29.8 °F -16.6 °F 65% 30.01 in 2.5 mi SW 16.1 mph 24.2 mph 0.00 in Snow Light Snow
9:24 PM -9.4 °F -30.6 °F -16.6 °F 71% 30.01 in 4.0 mi SW 13.8 mph 23.0 mph 0.00 in   Haze
9:39 PM -9.4 °F -28.9 °F -18.4 °F 65% 30.01 in 2.0 mi SW 11.5 mph - 0.00 in Snow Light Snow
9:53 PM -11.0 °F -30.9 °F -18.0 °F 71% 30.09 in 3.0 mi SW 11.5 mph - 0.00 in   Haze
10:07 PM -11.2 °F -34.4 °F -18.4 °F 70% 30.02 in 2.5 mi SW 16.1 mph 20.7 mph N/A   Haze
10:14 PM -11.2 °F -32.9 °F -18.4 °F 70% 30.02 in 4.0 mi SW 13.8 mph - N/A   Haze
10:53 PM -13.0 °F -33.4 °F -20.0 °F 71% 30.08 in 4.0 mi SW 11.5 mph - N/A   Haze
11:29 PM -13.0 °F -33.4 °F -20.2 °F 70% 30.01 in 10.0 mi SW 11.5 mph - N/A   Scattered Clouds
11:53 PM -14.1 °F -34.7 °F -20.9 °F 71% 30.09 in 10.0 mi SW 11.5 mph - N/A   Partly Cloudy